Terminal Aerodrome Forecast
Issued by NWS

Home | Current Version | Previous Version | Graphics & Text | Print | Product List | Glossary On
Versions: 1 2 3 4 5 6 7 8 9 10 11 12 13 14 15 16 17 18
000
FTUS43 KOAX 241335 AAA
TAFCDR
TAF AMD
KCDR 241335Z 2414/2512 04005KT P6SM OVC050
     FM241600 35013KT P6SM BKN080
     FM241900 02010KT P6SM SCT120=

USA.gov is the U.S. government's official web portal to all federal, state and local government web resources and services.